Tracking 35275 objects as of 8-Sep-2026
HD Live streaming from Space Station
objects crossing your sky now

QIANFAN-39

Track QIANFAN-39 now!
10-day predictions
QIANFAN-39 is classified as:


NORAD ID: 62240
Int'l Code: 2024-232D
Launch date: December 5, 2024
Source: People's Republic of China (PRC)
Launch site: Taiyaun Space Center, China (TSC)
Your satellite tracking list
Your tracking list is empty




NASA's NSSDC Master Catalog

Two Line Element Set (TLE):
1 62240U 24232D   26251.32955265  .00000310  00000-0  12503-3 0  9998
2 62240  89.0132   6.6190 0013788 275.0253  84.9367 14.25554551139795
Source of the keplerian elements: AFSPC